CW9353 Weather Reports


time (UTC)temp
C
wind
direction
speed
KPH
gust
KPH
rain 1hr
cm
rain 24hr
cm
rain mn
cm
humidity
%
barometer
mb
20260502194524 22 101 0.0 0.0 0.00 0.00 0.00 23 1012.6
20260502193022 22 76 0.0 0.0 0.00 0.00 0.00 23 1013.0
20260502191522 22 55 0.0 0.0 0.00 0.00 0.00 23 1013.3
20260502190021 21 55 0.0 0.0 0.00 0.00 0.00 23 1013.4
20260502184523 21 355 0.0 0.0 0.00 0.00 0.00 24 1014.0
20260502183010 21 27 0.0 0.0 0.00 0.00 0.00 25 1014.3
20260502181506 20 72 0.0 0.0 0.00 0.00 0.00 26 1014.3
20260502163048 17 194 0.0 0.0 0.00 0.00 0.00 30 1015.1
20260502161545 17 180 0.0 0.0 0.00 0.00 0.00 30 1015.2
20260502151537 14 174 0.0 0.0 0.00 0.00 0.00 35 1016.0
20260502123011 3 166 0.0 0.0 0.00 0.00 0.00 57 1015.6
20260502121511 3 166 0.0 0.0 0.00 0.00 0.00 58 1015.6
20260502114507 5 165 0.0 0.0 0.00 0.00 0.00 52 1015.2
20260502113007 5 165 0.0 0.0 0.00 0.00 0.00 48 1015.1
20260502111606 6 165 0.0 0.0 0.00 0.00 0.00 46 1015.1
20260502110005 6 166 0.0 0.0 0.00 0.00 0.00 47 1015.1
20260502104505 6 167 0.0 0.0 0.00 0.00 0.00 46 1015.2
20260502103011 6 167 0.0 0.0 0.00 0.00 0.00 46 1015.1
20260502101504 6 167 0.0 0.0 0.00 0.00 0.00 48 1015.0
20260502070038 8 167 0.0 0.0 0.00 0.00 0.00 38 1015.3
20260502064550 8 167 0.0 0.0 0.00 0.00 0.00 37 1015.3
20260502063035 10 167 0.0 0.0 0.00 0.00 0.00 34 1015.2
20260502061529 10 167 0.0 0.0 0.00 0.00 0.00 34 1015.2
20260502060028 10 167 0.0 0.0 0.00 0.00 0.00 32 1015.2
20260502054529 11 167 0.0 0.0 0.00 0.00 0.00 31 1015.2
20260502053025 10 167 0.0 0.0 0.00 0.00 0.00 32 1015.1
20260502051531 11 167 0.0 0.0 0.00 0.00 0.00 32 1015.2
20260502050029 10 167 0.0 0.0 0.00 0.00 0.00 34 1015.3
20260502044533 11 167 0.0 0.0 0.00 0.00 0.00 31 1015.2
20260502043024 11 167 0.0 0.0 0.00 0.00 0.00 31 1015.3
20260502041524 11 167 0.0 0.0 0.00 0.00 0.00 31 1015.3
20260502040035 11 167 0.0 0.0 0.00 0.00 0.00 35 1015.3
20260502034526 12 167 0.0 0.0 0.00 0.00 0.00 32 1015.0
20260502033021 15 167 0.0 0.0 0.00 0.00 0.00 27 1014.8
20260502031520 15 167 0.0 0.0 0.00 0.00 0.00 26 1014.7
20260502030023 16 167 0.0 0.0 0.00 0.00 0.00 26 1014.6
20260502024523 16 167 0.0 0.0 0.00 0.00 0.00 25 1014.6
20260502023019 16 167 0.0 0.0 0.00 0.00 0.00 25 1014.5
20260502021517 17 167 0.0 0.0 0.00 0.00 0.00 25 1014.3
20260502020018 17 167 0.0 0.0 0.00 0.00 0.00 23 1014.2
20260502014536 18 167 0.0 0.0 0.00 0.00 0.00 24 1014.1
20260502013017 18 167 0.0 0.0 0.00 0.00 0.00 22 1014.2
20260502011515 19 167 0.0 0.0 0.00 0.00 0.00 20 1014.2
20260502010015 20 167 0.0 0.0 0.00 0.00 0.00 20 1014.2
20260502004521 20 167 0.0 0.0 0.00 0.00 0.00 20 1014.1
20260502003013 20 167 0.0 0.0 0.00 0.00 0.00 19 1014.2
20260502001522 21 166 0.0 0.0 0.00 0.00 0.00 19 1014.2
20260502000011 21 169 0.0 0.0 0.00 0.00 0.00 20 1014.3
20260501234510 21 166 0.0 0.0 0.00 0.00 0.00 19 1014.5
20260501233010 21 165 0.0 0.0 0.00 0.00 0.00 19 1014.6
20260501231507 21 168 0.0 0.0 0.00 0.00 0.00 19 1014.7
20260501230006 21 175 0.0 0.0 0.00 0.00 0.00 20 1014.9
20260501224505 21 197 0.0 0.0 0.00 0.00 0.00 19 1015.0
20260501223010 21 163 0.0 0.0 0.00 0.00 0.00 21 1015.0
20260501221600 21 179 0.0 0.0 0.00 0.00 0.00 19 1015.4
20260501220058 21 150 0.0 0.0 0.00 0.00 0.00 20 1015.5
20260501214557 21 193 0.0 0.0 0.00 0.00 0.00 21 1015.7
20260501213057 21 169 0.0 0.0 0.00 0.00 0.00 23 1015.9
20260501211553 20 210 0.0 0.0 0.00 0.00 0.00 22 1016.2
20260501210056 20 204 0.0 0.0 0.00 0.00 0.00 22 1016.4
20260501204549 20 177 0.0 0.0 0.00 0.00 0.00 23 1016.5
20260501203048 20 200 0.0 0.0 0.00 0.00 0.00 24 1016.6
20260501201545 20 139 0.0 0.0 0.00 0.00 0.00 23 1016.6
20260501200043 19 171 0.0 0.0 0.00 0.00 0.00 25 1016.8